{"data":{"norad_id":59152,"intl_designator":"2024-044A","name":"STARLINK-31312","alt_names":[],"object_type":"PAYLOAD","status":"ACTIVE","operator":null,"country":"US","launch_date":"2024-03-04","launch_site_code":"AFETR","launch_vehicle":null,"mission":null,"orbit_class":"UNKNOWN","rcs_meters":null,"size_class":null,"mass_kg":null,"dimensions":null,"purposes":["comms"],"wikipedia_slug":null,"has_3d_model":false,"image_url":null,"decayed_at":null,"tle_current":{"epoch":"2026-09-19T09:12:28.899648Z","epoch_age_seconds":255258,"freshness":"STALE","line1":"1 59152U 24044A   26262.38366782  .00000094  00000+0  12943-4 0  9992","line2":"2 59152  43.0062  42.4479 0001409 266.3891  93.6799 15.27578029143803","mean_motion":15.27578029,"eccentricity":0.0001409,"inclination_deg":43.0062,"raan_deg":42.4479,"arg_perigee_deg":266.3891,"mean_anomaly_deg":93.6799,"bstar":1.2943e-5,"rev_number":14380,"period_min":94.266870343944,"perigee_km":482.08825597655,"apogee_km":484.02173988157,"semimajor_km":6861.1919979291,"source":"CELESTRAK","updated_at":"2026-09-21T09:00:34.037868Z"}}}